Station Historical Data
Daily Summary for September 22, 2017 Units:  English    Metric   Both
« Previous Day
Next Day »
Daily Weekly Monthly Yearly Custom
  High: Low: Average:
Temperature: 60.7 °F 46.0 °F 52.4 °F
Dew Point: 43.0 °F 33.3 °F 39.7 °F
Humidity: 73 % 46 % 63 %
Wind Speed: 9.0 mph 0.0 mph 0.9 mph
Wind Gust: 14.0 mph - -
Wind:- - SE
Pressure: 29.96 in 29.91 in -
Precipitation: 0.00 in    
Historical Graphs
 
 
Tabular Data for September 22, 2017
Time Temperature Dew Point Pressure Wind Wind Speed Wind Gust Humidity Rainfall Rate (Hourly) solar
00:03 48.5 °F 39.9 °F 29.93 in Calm     72 % 0.00 in 0.00 W/m2
00:08 48.4 °F 39.8 °F 29.93 in Calm     72 % 0.00 in 0.00 W/m2
00:13 48.4 °F 39.4 °F 29.93 in Calm     71 % 0.00 in 0.00 W/m2
00:18 48.4 °F 39.8 °F 29.93 in Calm     72 % 0.00 in 0.00 W/m2
00:23 48.4 °F 39.8 °F 29.93 in Calm     72 % 0.00 in 0.00 W/m2
00:28 48.5 °F 39.9 °F 29.93 in Calm     72 % 0.00 in 0.00 W/m2
00:33 48.5 °F 39.9 °F 29.93 in Calm     72 % 0.00 in 0.00 W/m2
00:38 48.5 °F 39.9 °F 29.93 in Calm     72 % 0.00 in 0.00 W/m2
00:43 48.5 °F 39.9 °F 29.93 in Calm   2.0 mph 72 % 0.00 in 0.00 W/m2
00:53 48.6 °F 40.0 °F 29.92 in ESE 1.0 mph 5.0 mph 72 % 0.00 in 0.00 W/m2
00:58 48.6 °F 40.0 °F 29.92 in Calm   5.0 mph 72 % 0.00 in 0.00 W/m2
01:03 48.6 °F 40.0 °F 29.92 in ESE 1.0 mph 5.0 mph 72 % 0.00 in 0.00 W/m2
01:08 48.6 °F 40.0 °F 29.92 in Calm   5.0 mph 72 % 0.00 in 0.00 W/m2
01:13 48.6 °F 40.0 °F 29.92 in Calm   8.0 mph 72 % 0.00 in 0.00 W/m2
01:18 48.6 °F 40.0 °F 29.92 in Calm   5.0 mph 72 % 0.00 in 0.00 W/m2
01:23 48.5 °F 39.9 °F 29.92 in Calm   7.0 mph 72 % 0.00 in 0.00 W/m2
01:28 48.5 °F 39.9 °F 29.92 in ESE 4.0 mph 6.0 mph 72 % 0.00 in 0.00 W/m2
01:33 48.5 °F 39.9 °F 29.92 in Calm   8.0 mph 72 % 0.00 in 0.00 W/m2
01:38 48.4 °F 39.8 °F 29.92 in Calm   7.0 mph 72 % 0.00 in 0.00 W/m2
01:43 48.3 °F 39.7 °F 29.92 in ESE 2.0 mph 7.0 mph 72 % 0.00 in 0.00 W/m2
01:48 48.3 °F 40.1 °F 29.92 in Calm   8.0 mph 73 % 0.00 in 0.00 W/m2
01:53 48.1 °F 39.9 °F 29.92 in East 1.0 mph 8.0 mph 73 % 0.00 in 0.00 W/m2
01:58 48.0 °F 39.8 °F 29.92 in Calm   7.0 mph 73 % 0.00 in 0.00 W/m2
02:03 48.0 °F 39.8 °F 29.92 in Calm   9.0 mph 73 % 0.00 in 0.00 W/m2
02:08 47.9 °F 39.7 °F 29.92 in East 1.0 mph 7.0 mph 73 % 0.00 in 0.00 W/m2
02:13 47.9 °F 39.7 °F 29.92 in East 6.0 mph 8.0 mph 73 % 0.00 in 0.00 W/m2
02:18 47.9 °F 39.7 °F 29.92 in East 2.0 mph 6.0 mph 73 % 0.00 in 0.00 W/m2
02:19 47.9 °F 39.7 °F 29.92 in Calm   6.0 mph 73 % 0.00 in 0.00 W/m2
02:24 47.8 °F 39.6 °F 29.92 in Calm   7.0 mph 73 % 0.00 in 0.00 W/m2
02:29 47.8 °F 39.6 °F 29.92 in East 1.0 mph 6.0 mph 73 % 0.00 in 0.00 W/m2
02:34 47.8 °F 39.6 °F 29.92 in Calm   8.0 mph 73 % 0.00 in 0.00 W/m2
02:39 47.8 °F 39.6 °F 29.92 in East 1.0 mph 5.0 mph 73 % 0.00 in 0.00 W/m2
02:44 47.7 °F 39.5 °F 29.92 in Calm   6.0 mph 73 % 0.00 in 0.00 W/m2
02:49 47.7 °F 39.5 °F 29.92 in Calm   6.0 mph 73 % 0.00 in 0.00 W/m2
02:54 47.7 °F 39.5 °F 29.92 in Calm   5.0 mph 73 % 0.00 in 0.00 W/m2
02:59 47.7 °F 39.5 °F 29.92 in East 2.0 mph 5.0 mph 73 % 0.00 in 0.00 W/m2
03:04 47.7 °F 39.5 °F 29.92 in East 4.0 mph 6.0 mph 73 % 0.00 in 0.00 W/m2
03:09 47.7 °F 39.5 °F 29.92 in Calm   6.0 mph 73 % 0.00 in 0.00 W/m2
03:14 47.7 °F 39.5 °F 29.92 in East 4.0 mph 8.0 mph 73 % 0.00 in 0.00 W/m2
03:19 47.7 °F 39.5 °F 29.92 in East 4.0 mph 6.0 mph 73 % 0.00 in 0.00 W/m2
03:24 47.8 °F 39.6 °F 29.92 in East 1.0 mph 4.0 mph 73 % 0.00 in 0.00 W/m2
03:29 47.8 °F 39.6 °F 29.91 in Calm   2.0 mph 73 % 0.00 in 0.00 W/m2
03:34 47.8 °F 39.6 °F 29.91 in Calm   7.0 mph 73 % 0.00 in 0.00 W/m2
03:39 47.8 °F 39.6 °F 29.91 in East 4.0 mph 6.0 mph 73 % 0.00 in 0.00 W/m2
03:44 47.9 °F 39.7 °F 29.91 in East 7.0 mph 7.0 mph 73 % 0.00 in 0.00 W/m2
03:49 47.9 °F 39.7 °F 29.91 in East 2.0 mph 7.0 mph 73 % 0.00 in 0.00 W/m2
03:54 47.9 °F 39.3 °F 29.91 in East 5.0 mph 8.0 mph 72 % 0.00 in 0.00 W/m2
03:58 47.9 °F 39.3 °F 29.91 in Calm   9.0 mph 72 % 0.00 in 0.00 W/m2
04:03 47.9 °F 39.3 °F 29.91 in East 2.0 mph 7.0 mph 72 % 0.00 in 0.00 W/m2
04:08 47.9 °F 39.3 °F 29.91 in East 2.0 mph 7.0 mph 72 % 0.00 in 0.00 W/m2
04:13 47.9 °F 39.3 °F 29.91 in Calm   9.0 mph 72 % 0.00 in 0.00 W/m2
04:18 48.0 °F 39.4 °F 29.91 in Calm   6.0 mph 72 % 0.00 in 0.00 W/m2
04:24 48.0 °F 39.4 °F 29.91 in East 5.0 mph 11.0 mph 72 % 0.00 in 0.00 W/m2
04:29 47.9 °F 39.3 °F 29.91 in East 4.0 mph 9.0 mph 72 % 0.00 in 0.00 W/m2
04:34 47.9 °F 39.7 °F 29.91 in Calm   9.0 mph 73 % 0.00 in 0.00 W/m2
04:39 47.9 °F 39.7 °F 29.91 in Calm   7.0 mph 73 % 0.00 in 0.00 W/m2
04:44 47.9 °F 39.7 °F 29.91 in Calm   9.0 mph 73 % 0.00 in 0.00 W/m2
04:49 47.8 °F 39.6 °F 29.91 in East 4.0 mph 4.0 mph 73 % 0.00 in 0.00 W/m2
04:54 47.8 °F 39.2 °F 29.91 in East 4.0 mph 7.0 mph 72 % 0.00 in 0.00 W/m2
04:59 47.7 °F 39.1 °F 29.91 in Calm   8.0 mph 72 % 0.00 in 0.00 W/m2
05:04 47.6 °F 39.4 °F 29.91 in Calm   7.0 mph 73 % 0.00 in 0.00 W/m2
05:09 47.6 °F 39.4 °F 29.91 in East 4.0 mph 8.0 mph 73 % 0.00 in 0.00 W/m2
05:14 47.5 °F 39.3 °F 29.91 in East 4.0 mph 8.0 mph 73 % 0.00 in 0.00 W/m2
05:19 47.4 °F 39.2 °F 29.91 in Calm   11.0 mph 73 % 0.00 in 0.00 W/m2
05:24 47.4 °F 39.2 °F 29.91 in East 4.0 mph 7.0 mph 73 % 0.00 in 0.00 W/m2
05:29 47.4 °F 39.2 °F 29.91 in East 6.0 mph 11.0 mph 73 % 0.00 in 0.00 W/m2
05:34 47.3 °F 39.1 °F 29.91 in Calm   6.0 mph 73 % 0.00 in 0.00 W/m2
05:39 47.3 °F 38.7 °F 29.91 in Calm   7.0 mph 72 % 0.00 in 0.00 W/m2
05:44 47.3 °F 38.7 °F 29.91 in Calm   8.0 mph 72 % 0.00 in 0.00 W/m2
05:49 47.2 °F 38.7 °F 29.91 in Calm   8.0 mph 72 % 0.00 in 0.00 W/m2
05:54 47.2 °F 38.7 °F 29.91 in ESE 1.0 mph 7.0 mph 72 % 0.00 in 0.00 W/m2
05:59 47.1 °F 38.5 °F 29.91 in Calm   6.0 mph 72 % 0.00 in 0.00 W/m2
06:04 47.0 °F 38.5 °F 29.91 in East 1.0 mph 7.0 mph 72 % 0.00 in 0.00 W/m2
06:09 46.9 °F 38.4 °F 29.91 in East 8.0 mph 9.0 mph 72 % 0.00 in 0.00 W/m2
06:14 46.8 °F 38.3 °F 29.92 in Calm   12.0 mph 72 % 0.00 in 0.00 W/m2
06:19 46.7 °F 38.2 °F 29.91 in ESE 5.0 mph 7.0 mph 72 % 0.00 in 0.00 W/m2
06:24 46.7 °F 38.2 °F 29.92 in ESE 1.0 mph 7.0 mph 72 % 0.00 in 0.00 W/m2
06:29 46.6 °F 38.1 °F 29.92 in Calm   9.0 mph 72 % 0.00 in 0.00 W/m2
06:34 46.5 °F 38.0 °F 29.92 in Calm   7.0 mph 72 % 0.00 in 0.00 W/m2
06:39 46.4 °F 37.9 °F 29.92 in East 5.0 mph 7.0 mph 72 % 0.00 in 0.00 W/m2
06:45 46.3 °F 37.8 °F 29.92 in Calm   12.0 mph 72 % 0.00 in 0.00 W/m2
06:50 46.3 °F 37.8 °F 29.92 in Calm   7.0 mph 72 % 0.00 in 5.00 W/m2
06:55 46.2 °F 37.7 °F 29.93 in Calm   8.0 mph 72 % 0.00 in 7.00 W/m2
07:00 46.2 °F 37.7 °F 29.93 in Calm   6.0 mph 72 % 0.00 in 11.00 W/m2
07:01 46.2 °F 37.7 °F 29.93 in East 4.0 mph 6.0 mph 72 % 0.00 in 11.00 W/m2
07:06 46.1 °F 37.6 °F 29.93 in East 1.0 mph 7.0 mph 72 % 0.00 in 14.00 W/m2
07:11 46.1 °F 37.6 °F 29.93 in East 4.0 mph 6.0 mph 72 % 0.00 in 16.00 W/m2
07:16 46.1 °F 37.6 °F 29.93 in East 1.0 mph 4.0 mph 72 % 0.00 in 19.00 W/m2
07:21 46.0 °F 37.5 °F 29.93 in East 4.0 mph 7.0 mph 72 % 0.00 in 30.00 W/m2
07:26 46.0 °F 37.5 °F 29.93 in Calm   5.0 mph 72 % 0.00 in 44.00 W/m2
07:31 46.0 °F 37.5 °F 29.93 in ESE 2.0 mph 5.0 mph 72 % 0.00 in 54.00 W/m2
07:36 46.0 °F 37.5 °F 29.93 in Calm   7.0 mph 72 % 0.00 in 67.00 W/m2
07:41 46.0 °F 37.5 °F 29.93 in ESE 1.0 mph 7.0 mph 72 % 0.00 in 88.00 W/m2
07:46 46.1 °F 37.2 °F 29.93 in ESE 1.0 mph 2.0 mph 71 % 0.00 in 102.00 W/m2
07:51 46.2 °F 37.3 °F 29.93 in ESE 2.0 mph 2.0 mph 71 % 0.00 in 114.00 W/m2
07:56 46.3 °F 37.4 °F 29.94 in Calm   2.0 mph 71 % 0.00 in 137.00 W/m2
08:01 46.4 °F 37.5 °F 29.94 in East 1.0 mph 4.0 mph 71 % 0.00 in 158.00 W/m2
08:06 46.4 °F 37.5 °F 29.94 in East 2.0 mph 7.0 mph 71 % 0.00 in 179.00 W/m2
08:11 46.5 °F 38.0 °F 29.94 in East 2.0 mph 2.0 mph 72 % 0.00 in 199.00 W/m2
08:16 46.6 °F 38.1 °F 29.94 in ESE 2.0 mph 6.0 mph 72 % 0.00 in 220.00 W/m2
08:21 46.7 °F 38.2 °F 29.94 in Calm   1.0 mph 72 % 0.00 in 243.00 W/m2
08:26 46.9 °F 38.4 °F 29.94 in East 1.0 mph 1.0 mph 72 % 0.00 in 262.00 W/m2
08:31 47.0 °F 38.5 °F 29.94 in East 1.0 mph 2.0 mph 72 % 0.00 in 278.00 W/m2
08:36 47.2 °F 38.7 °F 29.94 in Calm   2.0 mph 72 % 0.00 in 297.00 W/m2
08:41 47.3 °F 38.4 °F 29.94 in East 2.0 mph 6.0 mph 71 % 0.00 in 315.00 W/m2
08:46 47.5 °F 38.6 °F 29.94 in Calm     71 % 0.00 in 330.00 W/m2
08:51 47.7 °F 38.8 °F 29.94 in East 1.0 mph 2.0 mph 71 % 0.00 in 346.00 W/m2
08:56 48.1 °F 39.2 °F 29.95 in Calm     71 % 0.00 in 362.00 W/m2
09:01 48.4 °F 39.4 °F 29.95 in Calm     71 % 0.00 in 380.00 W/m2
09:06 48.6 °F 39.3 °F 29.95 in Calm     70 % 0.00 in 394.00 W/m2
09:11 48.8 °F 39.8 °F 29.95 in Calm     71 % 0.00 in 410.00 W/m2
09:16 49.1 °F 39.8 °F 29.95 in Calm     70 % 0.00 in 425.00 W/m2
09:22 49.3 °F 39.9 °F 29.95 in Calm     70 % 0.00 in 439.00 W/m2
09:27 49.7 °F 40.0 °F 29.95 in Calm     69 % 0.00 in 455.00 W/m2
09:32 50.0 °F 40.2 °F 29.95 in Calm     69 % 0.00 in 468.00 W/m2
09:37 50.4 °F 40.6 °F 29.96 in Calm     69 % 0.00 in 483.00 W/m2
09:42 50.8 °F 41.0 °F 29.96 in Calm     69 % 0.00 in 497.00 W/m2
09:47 51.1 °F 40.5 °F 29.96 in Calm     67 % 0.00 in 512.00 W/m2
09:52 51.5 °F 39.7 °F 29.96 in Calm     64 % 0.00 in 526.00 W/m2
09:57 51.9 °F 40.1 °F 29.96 in Calm     64 % 0.00 in 538.00 W/m2
10:02 52.2 °F 39.6 °F 29.96 in Calm     62 % 0.00 in 550.00 W/m2
10:07 52.6 °F 40.4 °F 29.96 in Calm     63 % 0.00 in 563.00 W/m2
10:12 52.8 °F 41.0 °F 29.96 in Calm     64 % 0.00 in 577.00 W/m2
10:17 53.0 °F 39.1 °F 29.96 in Calm     59 % 0.00 in 585.00 W/m2
10:22 53.2 °F 38.8 °F 29.96 in Calm     58 % 0.00 in 598.00 W/m2
10:27 53.4 °F 38.6 °F 29.96 in Calm     57 % 0.00 in 610.00 W/m2
10:32 53.7 °F 38.4 °F 29.96 in Calm     56 % 0.00 in 621.00 W/m2
10:37 54.1 °F 39.2 °F 29.96 in Calm     57 % 0.00 in 633.00 W/m2
10:42 54.4 °F 39.0 °F 29.96 in Calm   3.0 mph 56 % 0.00 in 643.00 W/m2
10:47 54.8 °F 39.0 °F 29.96 in Calm   1.0 mph 55 % 0.00 in 654.00 W/m2
10:52 54.9 °F 38.6 °F 29.96 in Calm   2.0 mph 54 % 0.00 in 666.00 W/m2
10:57 55.1 °F 38.3 °F 29.96 in Calm   2.0 mph 53 % 0.00 in 677.00 W/m2
11:02 55.2 °F 38.4 °F 29.96 in NW 1.0 mph 3.0 mph 53 % 0.00 in 684.00 W/m2
11:07 55.4 °F 38.6 °F 29.96 in Calm   2.0 mph 53 % 0.00 in 689.00 W/m2
11:12 55.6 °F 39.2 °F 29.96 in Calm   3.0 mph 54 % 0.00 in 700.00 W/m2
11:17 55.9 °F 39.0 °F 29.96 in NW 1.0 mph 1.0 mph 53 % 0.00 in 708.00 W/m2
11:22 56.0 °F 39.1 °F 29.95 in Calm   1.0 mph 53 % 0.00 in 715.00 W/m2
11:27 56.2 °F 38.8 °F 29.95 in WNW 2.0 mph 2.0 mph 52 % 0.00 in 724.00 W/m2
11:32 56.5 °F 39.6 °F 29.96 in WNW 2.0 mph 2.0 mph 53 % 0.00 in 729.00 W/m2
11:37 56.8 °F 38.9 °F 29.95 in Calm     51 % 0.00 in 737.00 W/m2
11:42 57.1 °F 38.7 °F 29.95 in Calm   1.0 mph 50 % 0.00 in 744.00 W/m2
11:47 57.4 °F 39.4 °F 29.95 in WNW 2.0 mph 3.0 mph 51 % 0.00 in 751.00 W/m2
11:52 57.7 °F 39.2 °F 29.95 in Calm   5.0 mph 50 % 0.00 in 763.00 W/m2
11:57 57.9 °F 39.4 °F 29.95 in Calm   6.0 mph 50 % 0.00 in 765.00 W/m2
12:02 58.2 °F 39.7 °F 29.95 in Calm   3.0 mph 50 % 0.00 in 770.00 W/m2
12:07 58.2 °F 39.7 °F 29.95 in Calm   3.0 mph 50 % 0.00 in 798.00 W/m2
12:18 58.3 °F 39.2 °F 29.95 in NW 3.0 mph 3.0 mph 49 % 0.00 in 803.00 W/m2
12:23 58.4 °F 39.8 °F 29.95 in Calm   5.0 mph 50 % 0.00 in 810.00 W/m2
12:28 58.4 °F 39.3 °F 29.95 in Calm   4.0 mph 49 % 0.00 in 856.00 W/m2
12:33 58.4 °F 39.8 °F 29.95 in Calm   2.0 mph 50 % 0.00 in 847.00 W/m2
12:38 58.6 °F 40.0 °F 29.95 in Calm   5.0 mph 50 % 0.00 in 803.00 W/m2
12:43 58.9 °F 39.8 °F 29.95 in NW 1.0 mph 6.0 mph 49 % 0.00 in 803.00 W/m2
12:48 59.1 °F 40.0 °F 29.94 in Calm   3.0 mph 49 % 0.00 in 803.00 W/m2
12:53 59.2 °F 40.1 °F 29.94 in Calm     49 % 0.00 in 816.00 W/m2
12:58 59.4 °F 40.8 °F 29.94 in WSW 1.0 mph 6.0 mph 50 % 0.00 in 844.00 W/m2
13:03 59.8 °F 40.1 °F 29.94 in West 1.0 mph 14.0 mph 48 % 0.00 in 874.00 W/m2
13:08 60.1 °F 40.4 °F 29.94 in NNW 2.0 mph 6.0 mph 48 % 0.00 in 944.00 W/m2
13:09 60.3 °F 40.0 °F 29.94 in NNW 3.0 mph 6.0 mph 47 % 0.00 in 944.00 W/m2
13:14 60.4 °F 41.2 °F 29.94 in Calm   14.0 mph 49 % 0.00 in 1046.00 W/m2
13:19 60.6 °F 40.8 °F 29.94 in NW 1.0 mph 8.0 mph 48 % 0.00 in 1005.00 W/m2
13:24 60.7 °F 39.8 °F 29.94 in WSW 2.0 mph 6.0 mph 46 % 0.00 in 1095.00 W/m2
13:29 60.7 °F 39.8 °F 29.94 in NNW 1.0 mph 7.0 mph 46 % 0.00 in 369.00 W/m2
13:35 60.5 °F 40.2 °F 29.94 in WNW 2.0 mph 6.0 mph 47 % 0.00 in 255.00 W/m2
13:40 60.0 °F 39.2 °F 29.94 in Calm   3.0 mph 46 % 0.00 in 209.00 W/m2
13:42 59.8 °F 39.5 °F 29.94 in Calm   2.0 mph 47 % 0.00 in 195.00 W/m2
13:47 59.4 °F 39.7 °F 29.94 in Calm   4.0 mph 48 % 0.00 in 181.00 W/m2
13:52 59.0 °F 39.4 °F 29.94 in Calm   2.0 mph 48 % 0.00 in 183.00 W/m2
13:57 58.9 °F 39.8 °F 29.94 in Calm   2.0 mph 49 % 0.00 in 139.00 W/m2
14:02 58.6 °F 40.0 °F 29.94 in Calm     50 % 0.00 in 116.00 W/m2
14:07 58.4 °F 40.4 °F 29.94 in Calm   3.0 mph 51 % 0.00 in 105.00 W/m2
14:12 58.2 °F 41.7 °F 29.94 in Calm   4.0 mph 54 % 0.00 in 121.00 W/m2
14:17 58.1 °F 41.1 °F 29.94 in Calm   5.0 mph 53 % 0.00 in 146.00 W/m2
14:22 57.7 °F 40.2 °F 29.94 in Calm   5.0 mph 52 % 0.00 in 156.00 W/m2
14:27 57.4 °F 38.9 °F 29.94 in NW 5.0 mph 11.0 mph 50 % 0.00 in 160.00 W/m2
14:32 57.1 °F 39.2 °F 29.94 in Calm   4.0 mph 51 % 0.00 in 163.00 W/m2
14:37 56.9 °F 40.0 °F 29.94 in Calm   1.0 mph 53 % 0.00 in 174.00 W/m2
14:42 56.8 °F 40.3 °F 29.94 in Calm     54 % 0.00 in 185.00 W/m2
14:47 56.8 °F 39.9 °F 29.94 in Calm     53 % 0.00 in 204.00 W/m2
14:52 56.7 °F 39.8 °F 29.94 in Calm     53 % 0.00 in 230.00 W/m2
14:57 56.7 °F 38.3 °F 29.94 in Calm     50 % 0.00 in 236.00 W/m2
15:02 56.6 °F 38.2 °F 29.94 in Calm     50 % 0.00 in 250.00 W/m2
15:07 56.7 °F 38.3 °F 29.94 in Calm     50 % 0.00 in 258.00 W/m2
15:12 56.8 °F 38.4 °F 29.94 in Calm     50 % 0.00 in 253.00 W/m2
15:17 56.9 °F 36.9 °F 29.94 in Calm     47 % 0.00 in 257.00 W/m2
15:22 57.1 °F 37.6 °F 29.94 in Calm     48 % 0.00 in 315.00 W/m2
15:27 57.3 °F 38.3 °F 29.94 in Calm     49 % 0.00 in 297.00 W/m2
15:32 57.4 °F 37.9 °F 29.94 in Calm     48 % 0.00 in 257.00 W/m2
15:37 57.7 °F 38.2 °F 29.94 in Calm     48 % 0.00 in 529.00 W/m2
15:42 57.8 °F 38.3 °F 29.94 in Calm     48 % 0.00 in 677.00 W/m2
15:47 58.1 °F 40.6 °F 29.94 in South 4.0 mph 5.0 mph 52 % 0.00 in 223.00 W/m2
15:52 58.3 °F 41.8 °F 29.94 in Calm   3.0 mph 54 % 0.00 in 294.00 W/m2
15:57 58.4 °F 41.8 °F 29.94 in Calm   3.0 mph 54 % 0.00 in 642.00 W/m2
16:02 58.5 °F 41.5 °F 29.93 in Calm   3.0 mph 53 % 0.00 in 617.00 W/m2
16:07 58.6 °F 41.0 °F 29.93 in Calm     52 % 0.00 in 573.00 W/m2
16:12 58.7 °F 41.1 °F 29.93 in Calm     52 % 0.00 in 571.00 W/m2
16:17 58.8 °F 41.2 °F 29.93 in Calm     52 % 0.00 in 543.00 W/m2
16:22 58.9 °F 41.3 °F 29.93 in Calm     52 % 0.00 in 512.00 W/m2
16:28 58.9 °F 41.3 °F 29.93 in Calm     52 % 0.00 in 480.00 W/m2
16:33 59.0 °F 40.4 °F 29.93 in Calm     50 % 0.00 in 88.00 W/m2
16:38 59.1 °F 40.5 °F 29.93 in Calm     50 % 0.00 in 86.00 W/m2
16:43 59.1 °F 40.5 °F 29.93 in Calm     50 % 0.00 in 88.00 W/m2
16:48 59.1 °F 41.5 °F 29.93 in Calm     52 % 0.00 in 341.00 W/m2
16:53 59.1 °F 41.0 °F 29.93 in Calm     51 % 0.00 in 406.00 W/m2
16:58 59.1 °F 41.0 °F 29.93 in Calm     51 % 0.00 in 394.00 W/m2
17:03 59.1 °F 40.0 °F 29.93 in Calm     49 % 0.00 in 392.00 W/m2
17:08 59.1 °F 40.0 °F 29.93 in Calm     49 % 0.00 in 401.00 W/m2
17:13 59.3 °F 41.2 °F 29.93 in Calm     51 % 0.00 in 394.00 W/m2
17:18 59.4 °F 40.8 °F 29.93 in Calm     50 % 0.00 in 378.00 W/m2
17:23 59.5 °F 41.4 °F 29.93 in Calm   1.0 mph 51 % 0.00 in 359.00 W/m2
17:28 59.6 °F 42.0 °F 29.93 in Calm     52 % 0.00 in 339.00 W/m2
17:33 59.7 °F 41.0 °F 29.93 in Calm     50 % 0.00 in 306.00 W/m2
17:38 59.8 °F 41.7 °F 29.93 in NNW 1.0 mph 5.0 mph 51 % 0.00 in 250.00 W/m2
17:43 59.8 °F 41.7 °F 29.93 in Calm     51 % 0.00 in 104.00 W/m2
17:48 59.7 °F 41.0 °F 29.93 in Calm     50 % 0.00 in 83.00 W/m2
17:53 59.6 °F 41.5 °F 29.93 in Calm     51 % 0.00 in 74.00 W/m2
17:58 59.6 °F 42.0 °F 29.93 in Calm     52 % 0.00 in 69.00 W/m2
18:03 59.5 °F 42.4 °F 29.93 in Calm     53 % 0.00 in 65.00 W/m2
18:08 59.3 °F 42.7 °F 29.93 in Calm     54 % 0.00 in 51.00 W/m2
18:13 59.1 °F 42.0 °F 29.93 in Calm     53 % 0.00 in 35.00 W/m2
18:18 58.9 °F 42.8 °F 29.93 in Calm     55 % 0.00 in 35.00 W/m2
18:23 58.5 °F 42.9 °F 29.93 in Calm     56 % 0.00 in 32.00 W/m2
18:28 58.3 °F 42.7 °F 29.93 in Calm     56 % 0.00 in 35.00 W/m2
18:33 57.9 °F 42.8 °F 29.93 in Calm     57 % 0.00 in 26.00 W/m2
18:38 57.7 °F 43.0 °F 29.93 in Calm     58 % 0.00 in 19.00 W/m2
18:43 57.4 °F 42.8 °F 29.93 in Calm     58 % 0.00 in 16.00 W/m2
18:48 57.1 °F 42.5 °F 29.93 in Calm     58 % 0.00 in 12.00 W/m2
18:53 56.8 °F 42.6 °F 29.93 in Calm     59 % 0.00 in 11.00 W/m2
18:58 56.5 °F 42.4 °F 29.93 in NNE 2.0 mph 3.0 mph 59 % 0.00 in 7.00 W/m2
19:03 56.2 °F 43.0 °F 29.93 in Calm   4.0 mph 61 % 0.00 in 5.00 W/m2
19:08 56.0 °F 41.9 °F 29.93 in NE 1.0 mph 4.0 mph 59 % 0.00 in 0.00 W/m2
19:13 55.6 °F 41.5 °F 29.93 in Calm   3.0 mph 59 % 0.00 in 0.00 W/m2
19:19 55.3 °F 41.7 °F 29.93 in Calm   5.0 mph 60 % 0.00 in 0.00 W/m2
19:24 55.0 °F 41.4 °F 29.93 in Calm   3.0 mph 60 % 0.00 in 0.00 W/m2
19:29 54.8 °F 41.2 °F 29.93 in Calm     60 % 0.00 in 0.00 W/m2
19:34 54.6 °F 41.0 °F 29.94 in Calm   3.0 mph 60 % 0.00 in 0.00 W/m2
19:39 54.4 °F 40.8 °F 29.94 in Calm   3.0 mph 60 % 0.00 in 0.00 W/m2
19:44 54.2 °F 40.6 °F 29.94 in East 1.0 mph 6.0 mph 60 % 0.00 in 0.00 W/m2
19:49 54.0 °F 40.4 °F 29.94 in Calm   4.0 mph 60 % 0.00 in 0.00 W/m2
19:54 53.9 °F 40.3 °F 29.94 in Calm   7.0 mph 60 % 0.00 in 0.00 W/m2
19:59 53.9 °F 40.3 °F 29.94 in East 4.0 mph 6.0 mph 60 % 0.00 in 0.00 W/m2
20:04 53.9 °F 40.3 °F 29.94 in Calm   7.0 mph 60 % 0.00 in 0.00 W/m2
20:09 53.8 °F 40.3 °F 29.94 in Calm   5.0 mph 60 % 0.00 in 0.00 W/m2
20:14 53.7 °F 40.2 °F 29.94 in Calm   1.0 mph 60 % 0.00 in 0.00 W/m2
20:19 53.7 °F 40.2 °F 29.94 in Calm     60 % 0.00 in 0.00 W/m2
20:24 53.7 °F 40.6 °F 29.94 in Calm     61 % 0.00 in 0.00 W/m2
20:29 53.7 °F 40.6 °F 29.94 in Calm     61 % 0.00 in 0.00 W/m2
20:34 53.6 °F 40.5 °F 29.94 in Calm     61 % 0.00 in 0.00 W/m2
20:39 53.5 °F 40.4 °F 29.94 in East 4.0 mph 5.0 mph 61 % 0.00 in 0.00 W/m2
20:44 53.3 °F 40.6 °F 29.94 in East 4.0 mph 4.0 mph 62 % 0.00 in 0.00 W/m2
20:49 53.2 °F 40.5 °F 29.94 in East 1.0 mph 6.0 mph 62 % 0.00 in 0.00 W/m2
20:54 53.1 °F 40.8 °F 29.94 in East 1.0 mph 6.0 mph 63 % 0.00 in 0.00 W/m2
20:59 52.8 °F 40.6 °F 29.94 in East 2.0 mph 9.0 mph 63 % 0.00 in 0.00 W/m2
21:04 52.7 °F 40.9 °F 29.95 in ESE 4.0 mph 9.0 mph 64 % 0.00 in 0.00 W/m2
21:09 52.5 °F 41.1 °F 29.95 in Calm   9.0 mph 65 % 0.00 in 0.00 W/m2
21:14 52.3 °F 41.3 °F 29.95 in ESE 4.0 mph 7.0 mph 66 % 0.00 in 0.00 W/m2
21:19 52.2 °F 41.2 °F 29.94 in Calm   8.0 mph 66 % 0.00 in 0.00 W/m2
21:24 52.1 °F 41.5 °F 29.94 in ESE 1.0 mph 6.0 mph 67 % 0.00 in 0.00 W/m2
21:29 52.0 °F 41.4 °F 29.94 in ESE 6.0 mph 6.0 mph 67 % 0.00 in 0.00 W/m2
21:34 51.9 °F 41.3 °F 29.94 in Calm   5.0 mph 67 % 0.00 in 0.00 W/m2
21:39 51.8 °F 41.6 °F 29.94 in Calm   7.0 mph 68 % 0.00 in 0.00 W/m2
21:44 51.7 °F 41.5 °F 29.94 in Calm   9.0 mph 68 % 0.00 in 0.00 W/m2
21:49 51.5 °F 41.3 °F 29.94 in East 9.0 mph 9.0 mph 68 % 0.00 in 0.00 W/m2
21:54 51.4 °F 41.2 °F 29.94 in East 7.0 mph 11.0 mph 68 % 0.00 in 0.00 W/m2
21:59 51.3 °F 41.1 °F 29.94 in East 8.0 mph 8.0 mph 68 % 0.00 in 0.00 W/m2
22:04 51.2 °F 41.0 °F 29.94 in East 4.0 mph 9.0 mph 68 % 0.00 in 0.00 W/m2
22:09 51.1 °F 40.9 °F 29.94 in East 6.0 mph 6.0 mph 68 % 0.00 in 0.00 W/m2
22:14 51.0 °F 40.8 °F 29.94 in East 5.0 mph 12.0 mph 68 % 0.00 in 0.00 W/m2
22:19 50.9 °F 40.7 °F 29.94 in Calm   5.0 mph 68 % 0.00 in 0.00 W/m2
22:24 50.8 °F 40.6 °F 29.94 in Calm   8.0 mph 68 % 0.00 in 0.00 W/m2
22:29 50.6 °F 40.4 °F 29.94 in East 7.0 mph 7.0 mph 68 % 0.00 in 0.00 W/m2
22:34 50.4 °F 40.2 °F 29.94 in Calm   7.0 mph 68 % 0.00 in 0.00 W/m2
22:39 50.3 °F 40.2 °F 29.94 in Calm   7.0 mph 68 % 0.00 in 0.00 W/m2
22:45 50.0 °F 40.2 °F 29.94 in Calm     69 % 0.00 in 0.00 W/m2
22:50 49.9 °F 40.2 °F 29.94 in Calm     69 % 0.00 in 0.00 W/m2
22:55 49.8 °F 40.0 °F 29.94 in Calm     69 % 0.00 in 0.00 W/m2
23:00 49.6 °F 39.5 °F 29.94 in Calm     68 % 0.00 in 0.00 W/m2
23:05 49.5 °F 39.4 °F 29.94 in Calm     68 % 0.00 in 0.00 W/m2
23:10 49.3 °F 38.8 °F 29.94 in Calm   5.0 mph 67 % 0.00 in 0.00 W/m2
23:12 49.1 °F 38.2 °F 29.94 in ENE 6.0 mph 7.0 mph 66 % 0.00 in 0.00 W/m2
23:17 48.8 °F 37.6 °F 29.94 in Calm     65 % 0.00 in 0.00 W/m2
23:22 48.6 °F 36.2 °F 29.94 in Calm   5.0 mph 62 % 0.00 in 0.00 W/m2
23:27 48.4 °F 36.0 °F 29.94 in Calm   4.0 mph 62 % 0.00 in 0.00 W/m2
23:32 48.3 °F 35.5 °F 29.94 in Calm     61 % 0.00 in 0.00 W/m2
23:37 48.2 °F 35.0 °F 29.94 in Calm     60 % 0.00 in 0.00 W/m2
23:42 48.2 °F 35.0 °F 29.94 in Calm   5.0 mph 60 % 0.00 in 0.00 W/m2
23:47 48.2 °F 34.1 °F 29.94 in Calm     58 % 0.00 in 0.00 W/m2
23:52 48.3 °F 34.2 °F 29.94 in Calm   4.0 mph 58 % 0.00 in 0.00 W/m2
23:55 48.3 °F 33.3 °F 29.94 in Calm   4.0 mph 56 % 0.00 in 0.00 W/m2
Juneau County Weather
Compliments of Weather Underground - 4.5 mb
 WU-history PHP script courtesy of   Juneau County Weather.
powered by Cumulus v1.9.3 (1059)
Ambient Weather VWS v14.00
Top Contact Website Map Copyright © 2007 - 2018 Foresthillweather.com Never base important decisions on this or any weather information obtained from the Internet